User: anonymous   Login
Location: Chiroubles
(46.1812°N, 4.6660°E)
Time: 05:47:26
(UTC+00:00)
Language:

DMSP 5D-2 F13 DEB - Orbit

View from above orbital plane
View from above orbital plane
View from above satellite
View from above satellite

Ground track
Ground track

The orbit data is extracted from the following two-line orbital elements,

1 42269U 95015GK  21290.15828923  .00004752  00000-0  80198-3 0  9992
2 42269  98.6903  76.0826 0122760 113.2827 248.1352 14.65068543346843
Epoch (UTC): 17 October 2021 03:47:56
Eccentricity: 0.0122760
inclination: 98.6903°
perigee height: 590 km
apogee height: 763 km
right ascension of ascending node: 76.0826°
argument of perigee: 113.2827°
revolutions per day: 14.65068543
mean anomaly at epoch: 248.1352°
orbit number at epoch: 34684

The dashed part of the orbit path shows where the satellite is in the earth's shadow,  

DLR